Regional Weather Roundup
Issued by NWS

Home | Current Version | Previous Version | Text Only | Print | Product List | Glossary On
Versions: 1 2 3 4 5 6 7 8 9 10 11 12 13 14 15 16 17 18 19 20 21 22 23 24 25 26 27 28 29 30 31 32 33 34 35 36 37 38 39 40 41 42 43 44 45 46 47 48 49 50
000
ASUS44 KOUN 222110
RWROK

WEATHER ROUNDUP FOR OKLAHOMA
NATIONAL WEATHER SERVICE NORMAN OK
400 PM CDT FRI SEP 22 2017

NOTE: "FAIR" INDICATES FEW OR NO CLOUDS BELOW 12,000 FEET WITH NO
      SIGNIFICANT WEATHER AND/OR OBSTRUCTIONS TO VISIBILITY.

OKZ001>007-009>012-014-015-017-222200-
NORTHWEST OKLAHOMA AND THE PANHANDLE

CITY           SKY/WX    TMP DP  RH WIND       PRES   REMARKS
GAGE           SUNNY     91  64  40 S23G35    29.85F HX  92
GUYMON         MOSUNNY   93  59  31 S24G32    29.80F HX  92
ENID/WOODRING  MOSUNNY   93  68  43 S20G25    29.87F HX  97
$$

OKZ016-021>023-033>039-044-045-222200-
SOUTHWEST OKLAHOMA

CITY           SKY/WX    TMP DP  RH WIND       PRES   REMARKS
LAWTON/REGL    MOSUNNY   90  70  51 SE14      29.89F HX  95
LAWTON/FT SILL MOSUNNY   90  74  60 S17       29.88F HX  99
FREDERICK      MOSUNNY   91  71  51 SE15G24   29.85F HX  97
CLINTON        MOSUNNY   89  66  46 S22G31    29.90F HX  91
HOBART         SUNNY     91  67  44 S20       29.89F HX  94
ALTUS AFB      SUNNY     91  65  42 SE17      29.86F HX  94
$$

OKZ018>020-024>031-222200-
CENTRAL OKLAHOMA

CITY           SKY/WX    TMP DP  RH WIND       PRES   REMARKS
OKLAHOMA CITY  MOSUNNY   88  68  51 SE20      29.92F HX  91
OKC/WILEY POST MOSUNNY   88  69  53 S21       29.91F HX  92
OKC/TINKER AFB SUNNY     87  68  53 S14G22    29.92F HX  90
STILLWATER     MOSUNNY   91  67  44 S18G24    29.90F HX  94
GUTHRIE        PTSUNNY   89  67  47 S15G23    29.90F HX  92
$$

OKZ008-013-054>072-222200-
NORTHEAST OKLAHOMA

CITY           SKY/WX    TMP DP  RH WIND       PRES   REMARKS
TULSA          MOSUNNY   90  67  46 S22       29.91F HX  93
TULSA/JONES    MOSUNNY   90  66  45 S13       29.93F HX  92
PONCA CITY     SUNNY     90  68  48 S18G24    29.88F HX  94
MUSKOGEE       MOSUNNY   91  66  43 S12G18    29.95F HX  93
$$

OKZ032-040>043-046>053-073>077-222200-
SOUTH CENTRAL/SOUTHEAST OKLAHOMA

CITY           SKY/WX    TMP DP  RH WIND       PRES   REMARKS
ARDMORE/DWNTWN MOSUNNY   88  63  42 S9G17     29.92F
MCALESTER      SUNNY     90  67  46 S12G18    29.95F HX  93
$$





USA.gov is the U.S. government's official web portal to all federal, state and local government web resources and services.